Theta_e
306 303 300 303 303 303 302 301 300 301 306 313 311 310 315 318 318 317 317 317 318 318 318 319 320 322 324 326 328 329 331 333 337 338 339 340 336 334 335 337 338 337 338 339
304 302 304 304 303 302 303 302 300 305 311 314 312 310 314 317 315 316 315 315 315 315 315 317 318 320 321 322 324 326 328 330 332 334 337 338 336 333 334 335 336 336 334 335
302 303 304 303 302 303 301 301 300 301 312 315 312 309 313 314 314 315 315 316 315 313 313 315 317 319 320 320 321 323 326 327 329 331 332 332 332 330 329 330 330 331 331 332
302 304 303 303 302 303 300 302 302 300 300 299 300 296 307 315 315 313 313 314 314 314 315 316 317 318 319 319 319 321 323 325 326 328 327 327 323 320 322 323 324 325 327 327
301 302 303 302 302 303 301 303 302 300 299 298 296 295 299 311 313 315 313 313 314 315 315 315 316 318 319 320 318 318 320 321 322 323 323 319 319 318 319 319 322 324 325 325
303 306 305 303 303 303 303 302 300 299 299 294 295 295 297 304 309 313 313 312 314 315 316 317 317 318 319 318 316 315 316 317 319 319 320 320 319 318 316 318 317 318 320 321
303 303 305 306 303 303 303 301 296 293 293 293 296 296 299 304 310 313 314 310 314 316 316 316 316 318 318 317 314 312 314 315 318 319 319 319 319 320 318 317 317 318 317 317
298 296 302 305 303 302 300 301 296 289 291 294 296 294 301 311 314 316 317 312 314 315 317 316 316 316 317 317 313 310 312 314 316 318 318 319 320 317 317 318 318 317 317 318
299 298 304 304 304 304 300 299 299 295 293 293 296 299 307 312 312 314 314 313 313 314 315 315 317 319 319 318 316 312 312 314 315 316 318 318 319 319 318 319 320 318 321 318
304 297 301 302 304 303 303 302 297 298 289 287 292 293 297 307 311 313 314 311 313 316 316 317 317 318 319 317 317 313 313 314 315 316 319 318 319 319 319 320 319 320 320 321
304 302 299 302 301 301 299 299 297 299 296 290 288 293 304 308 314 314 316 315 315 316 316 317 317 317 318 318 315 315 313 314 315 316 317 318 319 318 318 318 319 319 320 320
303 303 297 297 302 303 302 300 301 295 293 294 294 294 304 306 311 316 317 317 319 318 318 318 318 317 317 317 316 314 314 313 314 315 316 317 318 319 318 318 318 319 318 320
304 300 295 295 300 302 300 300 299 299 298 294 292 295 305 308 309 313 315 318 318 318 318 317 318 317 317 317 316 315 315 314 313 314 314 316 318 318 319 319 320 319 318 318
309 300 300 295 297 301 298 299 300 300 296 296 295 298 302 304 305 307 307 309 312 315 316 317 317 317 317 317 317 317 316 316 316 314 313 313 314 317 318 319 319 318 318 318
307 301 298 297 297 299 299 299 299 298 299 295 298 297 302 305 305 307 310 312 313 314 314 315 316 317 317 318 318 317 317 317 316 312 310 312 313 316 318 318 317 317 317 318
302 299 299 297 298 299 297 299 299 299 299 298 299 299 306 307 310 310 310 311 311 312 313 315 316 316 315 317 318 318 317 319 320 316 313 313 312 310 313 314 311 311 312 312
303 300 297 293 297 297 294 299 300 301 301 301 296 301 305 307 308 309 310 311 310 311 313 315 317 317 318 319 318 318 320 320 316 313 313 311 310 308 307 307 307 309 312 314
301 301 298 295 296 288 299 301 302 301 301 302 300 301 307 308 310 310 311 310 311 313 315 316 317 316 316 318 319 320 319 314 313 313 311 309 307 306 307 307 308 310 309 311
303 301 295 294 293 296 298 300 300 299 299 304 303 306 307 309 309 308 311 313 313 315 314 314 314 313 314 313 313 313 309 310 309 307 305 307 305 306 305 305 308 309 309 310
300 301 299 293 290 288 298 301 305 304 295 306 308 307 307 307 300 304 312 312 313 313 313 312 310 311 312 311 312 310 307 307 305 306 306 307 307 307 307 307 308 309 309 308
295 296 294 293 293 296 303 305 305 293 298 307 309 309 308 305 307 308 313 311 311 310 310 311 311 310 310 310 310 307 307 306 307 307 305 304 304 306 307 307 308 308 308 308
295 295 293 294 292 290 304 303 298 305 306 309 309 309 309 309 307 310 311 310 309 310 310 310 306 304 304 306 306 305 304 305 306 305 304 303 305 304 304 305 306 307 307 303
296 300 297 299 299 305 307 308 310 310 309 308 308 308 309 307 308 310 309 309 308 308 308 305 303 303 305 306 306 304 304 305 307 305 304 304 304 304 305 304 304 304 303 301
300 302 300 298 302 303 306 307 309 310 310 310 310 308 309 307 309 308 308 308 306 306 305 305 305 304 303 305 303 304 306 307 306 305 303 304 303 302 305 304 304 302 302 301
301 302 301 300 301 302 305 307 310 307 307 307 308 309 308 309 308 308 307 306 306 306 305 305 303 303 303 305 306 307 306 307 304 301 303 303 302 302 302 303 303 303 303 300
300 301 300 300 307 307 308 308 308 306 306 308 308 307 308 309 308 308 306 306 305 304 303 304 304 304 304 304 304 304 305 305 305 304 302 301 302 302 301 301 301 295 294 294
Wind_Speed
2 5 7 8 4 2 4 7 5 2 4 7 9 8 5 5 6 6 6 6 6 7 6 8 9 9 10 12 12 12 12 13 7 5 4 5 6 6 6 6 9 10 10 11
3 2 3 4 5 4 5 8 5 6 5 5 7 6 4 4 3 2 3 4 4 5 6 7 7 9 11 11 11 11 13 13 9 6 5 4 3 5 6 6 8 11 11 10
2 3 5 4 7 8 3 3 3 3 7 9 8 5 6 4 4 4 3 3 3 2 4 6 6 8 9 11 12 13 10 9 10 9 6 5 5 5 6 7 7 9 11 11
1 1 6 8 4 1 4 3 5 6 2 1 2 3 4 6 7 7 7 7 5 5 4 5 6 7 9 10 10 10 9 9 10 9 9 11 8 6 5 5 6 6 10 10
3 3 7 3 1 2 4 4 5 3 4 2 3 5 3 1 10 12 9 8 7 5 3 3 4 5 6 7 7 6 7 9 9 10 9 7 8 5 5 5 8 9 9 11
2 1 2 3 4 3 11 5 6 4 1 5 2 4 5 5 6 5 11 10 8 7 4 2 1 2 3 5 5 5 6 7 8 8 9 10 9 7 6 8 7 7 7 8
2 2 2 2 6 4 2 3 3 3 3 2 2 5 5 2 7 6 14 12 10 8 7 5 4 2 0 1 4 5 6 7 7 8 8 8 7 7 7 7 7 8 7 8
5 5 1 3 2 3 2 3 4 5 4 3 3 6 1 3 3 5 10 8 8 10 8 7 6 5 4 2 2 4 5 6 6 6 6 5 5 4 4 5 5 5 5 7
5 4 1 5 2 2 5 3 3 5 2 4 3 3 5 1 4 6 9 10 12 10 9 9 8 8 7 6 4 4 4 4 4 4 3 4 3 4 5 4 4 4 4 5
6 4 0 3 0 11 1 8 3 1 4 5 3 5 6 6 8 10 13 15 14 11 12 11 10 10 8 6 5 6 5 5 4 2 1 0 2 3 4 3 4 4 4 6
5 2 4 2 3 6 5 4 5 2 2 5 5 3 3 6 11 13 15 16 15 14 13 12 11 10 9 8 7 7 8 8 7 5 3 3 2 3 4 4 4 4 5 5
2 4 4 2 2 3 2 2 6 5 5 2 4 5 3 4 4 10 13 14 13 13 12 12 13 12 11 10 10 9 8 7 6 5 4 5 5 5 6 6 6 5 6 5
9 2 4 3 4 2 4 4 4 5 2 8 7 4 3 1 1 3 9 11 10 9 8 9 10 12 12 11 10 9 7 6 6 6 6 6 7 6 7 8 8 7 6 6
4 4 4 9 0 3 5 8 9 5 6 6 11 9 7 5 6 7 8 6 6 6 7 8 9 10 10 10 9 9 8 6 6 7 7 7 6 9 9 10 9 8 6 6
1 4 4 2 2 4 4 9 11 11 9 9 12 14 14 7 5 4 3 1 4 6 5 4 5 6 7 8 9 7 6 4 3 4 6 5 4 6 9 8 6 6 5 5
1 4 3 3 5 6 8 10 11 13 11 11 14 17 14 4 5 5 6 7 9 9 9 8 6 4 1 3 5 5 4 1 3 5 4 4 7 7 9 10 9 8 6 5
5 7 5 5 1 3 9 17 16 10 8 9 12 9 8 10 9 8 8 7 8 8 8 9 9 9 8 7 5 1 2 2 3 4 7 7 5 5 5 5 7 7 10 9
7 7 3 2 4 10 1 1 2 8 5 9 7 4 9 10 8 7 5 7 6 5 6 7 7 7 8 7 5 3 3 5 7 6 6 7 7 6 7 6 7 9 10 10
2 6 4 5 8 7 9 6 7 9 7 9 8 10 11 9 8 6 4 3 5 6 6 7 7 8 8 8 7 8 7 5 5 5 5 5 4 5 5 6 9 9 8 8
5 2 7 5 5 6 2 4 7 5 9 14 11 14 14 11 7 4 7 6 7 7 7 7 8 8 8 6 5 5 5 5 5 4 4 5 6 7 7 7 8 8 8 7
5 4 11 7 7 5 6 8 10 6 1 13 14 14 14 9 3 7 9 8 7 8 9 8 6 6 4 4 3 5 5 5 5 5 4 4 5 6 6 7 7 7 6 7
10 11 6 5 7 12 10 9 9 3 3 12 12 12 12 7 7 7 9 9 9 9 7 6 6 6 4 4 3 4 5 3 4 3 4 4 6 5 6 7 6 6 6 7
7 6 6 10 7 3 12 2 5 7 6 9 12 10 10 9 7 8 9 9 8 7 7 6 7 6 4 4 4 3 3 2 2 4 5 6 6 6 6 6 6 6 6 5
5 4 3 4 7 5 9 3 4 6 5 10 8 12 10 8 9 9 9 8 7 6 7 7 6 5 4 4 3 2 2 2 3 4 5 5 6 7 6 5 5 3 5 7
2 9 7 3 2 2 6 8 8 7 9 11 10 11 10 11 10 10 10 9 7 7 6 4 4 4 5 4 5 5 4 3 3 2 3 5 5 5 5 5 5 6 5 5
7 7 7 6 10 7 8 12 12 12 12 13 13 11 8 9 11 11 10 8 8 8 7 6 6 5 5 4 5 5 6 4 2 2 4 4 4 4 5 5 4 5 4 8
Wind_Direction
42 212 205 186 190 135 135 124 124 64 60 81 87 126 134 131 132 128 111 105 100 84 71 62 52 51 57 51 49 41 39 35 40 47 56 54 58 40 32 22 19 11 6 357
198 207 185 146 161 144 153 137 104 102 58 91 151 124 146 152 139 151 144 139 120 112 92 75 67 65 62 60 54 52 45 39 37 49 62 77 89 57 41 33 30 23 15 9
223 104 154 167 143 141 77 137 154 96 103 82 155 159 182 156 164 170 199 210 184 140 110 96 84 74 76 60 47 46 45 43 44 48 76 84 86 62 33 28 29 23 18 15
176 69 158 141 117 147 146 132 119 118 218 321 280 253 223 193 210 209 201 209 199 183 169 134 115 86 66 57 54 51 45 46 50 48 65 67 65 62 37 27 33 34 28 24
77 137 146 152 77 190 107 69 71 83 92 252 166 253 125 213 238 222 214 215 209 205 194 140 101 82 59 55 59 63 64 58 54 57 59 68 67 67 52 46 34 30 31 30
55 24 26 83 70 46 144 93 63 67 64 244 48 263 235 197 238 221 205 213 210 209 214 228 4 8 45 75 70 74 78 71 69 67 63 64 64 51 44 36 35 31 25 20
81 28 7 134 109 99 126 146 255 224 204 287 117 248 299 284 233 256 203 200 202 205 209 214 227 239 222 78 55 76 74 75 77 80 71 62 59 56 53 33 32 25 28 21
176 177 19 13 0 156 148 227 253 271 255 314 169 242 125 337 308 231 208 196 201 209 206 214 218 224 207 182 84 101 97 89 72 66 64 60 50 53 50 42 37 40 29 24
174 183 66 34 98 295 141 184 47 105 72 267 294 265 229 163 159 181 193 199 212 210 209 215 213 216 210 205 183 161 138 120 100 74 63 55 50 46 46 38 28 36 31 25
177 140 74 123 54 56 271 131 161 130 258 271 222 273 261 212 202 181 195 207 214 212 213 211 210 207 207 206 188 187 197 187 184 199 188 81 22 15 4 356 20 13 6 1
148 212 145 198 215 186 151 164 66 100 259 269 282 241 220 233 205 201 205 209 214 214 212 210 207 206 208 204 199 200 203 204 207 218 236 274 301 306 303 308 316 326 327 337
116 113 152 163 6 292 14 158 182 230 207 235 299 255 16 297 241 221 223 224 226 222 206 204 201 199 202 205 208 206 207 217 218 231 254 268 282 282 282 278 278 286 297 310
176 127 148 173 174 148 218 168 129 105 122 194 227 242 36 34 345 245 247 243 239 238 217 208 206 205 205 205 213 216 211 223 233 236 256 262 270 276 274 276 278 274 280 297
105 133 207 241 294 121 178 186 177 198 211 219 232 255 208 263 286 286 285 294 276 253 223 214 212 210 211 212 214 218 220 224 246 247 254 268 286 294 293 290 289 282 281 286
183 175 186 203 218 200 206 198 192 212 233 232 260 231 257 268 249 295 312 72 87 87 108 156 194 210 216 219 225 227 231 236 282 276 276 276 288 313 325 328 330 307 299 306
21 139 161 214 210 233 251 241 233 238 247 254 263 270 264 179 151 137 115 109 95 88 86 89 90 96 116 251 252 243 239 271 349 329 336 35 69 43 29 17 349 344 317 306
150 143 158 240 265 233 262 240 236 230 227 251 249 281 176 166 153 142 123 107 94 82 66 57 49 43 35 33 29 204 148 37 65 88 87 76 53 37 20 18 323 334 317 316
144 141 166 169 151 238 3 152 229 221 238 211 248 249 185 153 133 135 131 121 110 85 62 51 49 51 44 44 47 74 86 98 91 71 51 52 38 22 353 1 303 306 314 315
132 149 150 203 215 290 260 200 188 200 251 206 205 164 151 136 142 152 155 102 91 82 75 75 77 77 74 74 77 87 80 84 85 83 86 31 39 323 327 321 319 315 307 314
123 33 221 161 214 244 212 173 161 162 259 182 176 167 161 161 194 132 159 132 107 99 96 100 97 96 85 64 83 91 97 87 62 29 11 5 357 349 340 326 326 323 327 332
172 193 218 207 232 265 224 157 156 195 92 170 181 171 168 183 70 107 130 114 111 114 112 111 101 83 74 70 88 103 94 74 46 35 37 25 360 339 338 325 322 321 328 332
181 176 189 186 224 253 155 144 197 147 131 172 174 169 175 158 138 127 124 124 127 121 118 109 98 87 77 85 102 84 67 62 84 71 46 4 353 343 334 323 326 320 323 328
205 207 180 199 203 80 183 226 175 168 155 170 165 168 172 155 144 133 130 129 121 114 101 106 115 116 96 72 41 68 87 83 76 61 26 2 351 349 345 329 327 321 352 349
204 168 211 166 183 209 193 184 183 179 166 157 157 149 151 141 142 130 132 135 130 123 127 138 144 130 100 65 63 62 63 13 13 49 19 354 338 341 347 341 353 328 342 342
122 162 176 228 219 198 214 209 174 154 141 137 134 145 145 143 144 142 142 144 138 135 138 134 93 69 59 47 53 41 22 353 25 13 9 358 351 353 354 359 357 357 6 343
187 166 191 208 186 190 193 185 170 156 157 154 142 138 136 142 137 139 140 142 143 136 137 124 98 81 52 37 33 18 14 354 349 334 12 23 7 13 21 17 21 136 16 347